Location: Addison Town Hall
(32.9525°N, 96.8158°W)
Time: 01:14:21
(UTC+00:00)

Cosmos 1328 Rocket - Pass Details

Date: 08 March 2021
Orbit: 602 x 626 km, 82.5° (Epoch: 10 April)

Event Time Altitude Azimuth Distance (km) Brightness Sun altitude
Rises 12:04:37 0° 210° (SSW) 2,840 6.7 -9.5°
Reaches altitude 10° 12:07:04 10° 222° (SW) 1,940 5.7 -9.0°
Maximum altitude 12:10:45 27° 281° (WNW) 1,153 4.4 -8.3°
Drops below altitude 10° 12:14:27 10° 341° (NNW) 1,951 5.9 -7.5°
Sets 12:16:56 0° 353° (N) 2,860 6.9 -7.0°
